SCP
1 2 2 2 1 1 1 1 1 1 1 1 1 1 1 1 1 1 0 0 0 0 0 0 0 0 0 0 0 0 0 0 0 0 0 0 0 0 0 0 0 0 0
2 2 2 1 1 1 2 1 1 1 1 1 1 1 1 1 1 1 0 0 0 0 0 0 0 0 0 0 0 0 0 0 0 0 0 0 0 0 0 0 0 0 0
2 2 2 2 1 2 2 2 1 1 1 1 1 1 1 1 1 1 0 0 0 0 0 0 0 0 0 0 0 0 0 0 0 0 0 0 0 0 0 0 0 0 0
2 2 2 2 2 2 2 2 2 1 1 1 1 1 1 1 1 1 0 0 0 0 0 0 0 0 0 0 0 0 0 0 0 0 0 0 0 0 0 0 0 0 0
2 2 2 2 2 2 2 2 2 2 1 1 1 1 1 1 1 1 1 1 0 0 0 0 0 0 0 0 0 0 0 0 0 0 0 0 0 0 0 0 0 0 0
2 2 3 3 2 2 2 2 2 2 2 1 1 1 1 1 1 1 1 1 1 0 0 0 0 0 0 0 0 0 0 0 0 0 0 0 0 0 0 0 0 0 0
2 3 3 3 3 2 2 2 2 2 2 2 1 1 1 1 1 1 1 1 1 1 1 1 1 1 1 0 0 0 0 0 0 0 0 0 0 0 0 0 0 0 0
3 3 3 3 3 2 2 2 3 2 2 2 2 1 1 1 1 1 1 1 1 1 1 1 1 1 1 1 0 0 0 0 0 0 0 0 0 0 0 0 0 0 0
3 3 3 2 2 2 2 3 3 3 2 2 2 1 1 1 1 1 1 1 1 1 1 1 1 1 1 1 1 1 0 0 0 0 0 0 0 0 0 0 0 0 0
3 3 2 2 2 3 3 3 3 3 2 2 1 1 1 1 1 1 1 1 1 1 1 1 1 1 1 1 1 1 1 1 1 0 0 0 0 0 1 1 1 1 0
3 2 2 2 3 3 3 3 3 2 2 2 1 1 1 1 1 1 1 2 1 1 1 1 1 1 1 2 2 1 1 1 1 1 0 0 0 0 1 1 1 1 1
3 2 2 3 3 3 3 3 3 2 2 2 2 2 2 2 2 2 2 1 1 2 2 1 1 1 1 2 2 2 1 1 1 1 1 0 0 1 1 1 1 1 1
2 2 2 3 3 3 3 3 3 2 2 2 2 2 2 2 2 2 2 2 2 2 2 2 2 2 2 2 2 1 1 1 1 1 1 1 1 1 1 1 1 1 1
2 2 2 3 3 3 3 3 3 2 2 2 2 2 2 2 2 2 2 2 2 2 2 2 3 3 3 2 2 1 1 1 1 1 1 1 1 1 1 1 1 1 1
2 2 2 2 2 3 3 3 3 3 2 2 2 2 2 2 2 2 2 2 2 2 3 3 3 3 4 3 2 2 2 1 1 1 1 1 1 1 1 1 1 1 1
2 2 2 2 2 2 2 3 3 3 3 2 2 2 2 2 2 2 2 2 1 2 2 2 3 3 4 3 3 3 2 2 1 1 1 1 1 1 1 1 1 1 1
2 2 2 2 2 2 2 2 2 3 3 2 2 2 2 2 2 2 2 1 1 1 2 2 2 2 2 2 2 2 2 2 2 2 2 1 1 1 1 1 1 1 1
2 2 2 2 2 2 1 1 2 2 2 2 2 2 2 2 2 2 2 1 1 1 1 1 1 1 1 2 2 2 2 2 1 1 2 2 2 2 2 2 1 1 2
1 1 1 1 1 1 1 1 1 1 1 1 1 2 2 2 2 2 2 1 1 1 1 1 1 1 1 1 1 1 1 1 1 1 1 1 1 2 2 2 1 2 2
1 1 1 1 1 1 1 1 1 1 1 1 1 1 1 1 1 1 1 1 1 1 1 1 1 1 1 1 1 1 1 1 1 1 1 1 1 1 1 1 2 2 2
1 1 1 1 1 1 1 1 1 1 1 1 0 0 0 0 0 0 1 1 1 1 1 1 1 1 0 0 1 1 1 1 1 1 1 1 1 1 1 1 2 2 2
0 1 1 1 1 1 1 1 1 1 1 0 0 0 0 0 0 0 0 0 0 0 0 0 0 0 0 0 0 0 0 0 1 1 1 1 1 1 1 2 2 2 2
0 0 0 1 1 1 0 0 0 0 1 1 0 0 0 0 0 0 0 0 0 0 0 0 0 0 0 0 0 0 0 0 1 1 1 1 1 1 2 2 2 2 2
0 0 0 0 0 0 0 0 0 0 0 0 0 0 0 0 0 0 0 0 0 0 0 0 0 0 0 0 0 0 0 0 0 1 1 1 1 1 2 2 2 2 2
0 0 0 0 0 0 0 0 0 0 0 0 0 0 0 0 0 0 0 0 0 0 0 0 0 0 0 0 0 0 0 0 0 0 1 1 1 1 1 2 2 2 2
0 0 0 0 0 0 0 0 0 0 0 0 0 0 0 0 0 0 0 0 0 0 0 0 0 0 0 0 0 0 0 0 0 0 0 1 1 1 1 1 1 1 2
Wind_Speed
7 9 17 18 18 18 18 18 18 17 17 17 17 17 17 17 16 15 14 13 12 11 10 9 8 8 9 9 10 10 11 12 11 11 12 12 12 12 12 14 13 11 15
12 12 17 18 18 18 18 18 17 17 17 17 17 17 16 16 15 15 14 12 12 11 10 9 8 9 9 9 10 11 11 12 11 11 12 11 11 11 12 13 12 10 15
13 11 15 17 18 18 17 17 17 17 17 17 16 16 16 15 15 14 13 12 11 10 9 9 8 9 9 9 10 10 11 11 11 11 10 7 8 11 12 13 13 14 14
13 9 12 18 17 17 17 16 16 16 16 16 15 15 15 14 14 13 13 12 11 10 9 9 9 9 9 9 9 10 10 10 10 10 5 5 6 11 12 13 13 14 14
11 8 12 19 17 17 16 15 15 15 15 15 14 14 14 14 13 13 12 11 10 10 9 9 9 9 9 9 9 9 9 9 10 8 4 3 4 11 12 13 13 13 14
10 8 11 18 17 16 16 15 14 14 14 14 14 13 13 12 12 11 11 10 10 9 9 9 9 9 8 8 8 8 8 8 8 5 3 3 4 10 12 13 13 13 13
11 8 10 17 16 16 15 14 14 13 13 13 13 13 12 12 11 11 10 10 9 9 9 8 9 8 8 8 8 7 7 8 5 4 4 4 5 9 11 12 12 13 13
11 7 9 16 16 15 15 14 13 13 13 13 13 12 12 11 11 11 11 10 10 9 8 8 9 8 8 7 7 7 6 6 5 4 4 5 7 9 11 12 12 12 13
8 6 5 7 10 14 14 14 13 13 12 12 12 12 12 12 11 11 10 11 10 10 9 9 9 9 9 8 8 7 7 7 3 3 5 5 9 11 13 12 12 13 13
7 5 4 5 5 5 7 12 12 12 12 12 11 12 12 12 11 11 10 10 11 11 11 11 10 10 9 9 9 8 8 7 3 4 3 5 11 13 14 14 14 14 14
7 4 4 4 4 4 3 7 9 11 11 10 9 11 10 5 4 6 8 11 11 11 12 12 11 11 10 9 10 10 8 3 4 3 3 7 11 14 15 15 15 15 15
8 6 3 3 4 4 3 3 2 3 3 4 3 4 3 2 3 5 6 11 12 12 12 13 13 11 9 4 7 9 4 5 5 4 5 10 12 14 16 15 16 16 16
6 6 5 4 4 3 1 1 1 1 1 2 3 3 2 2 2 3 2 4 5 8 5 7 7 5 5 4 4 5 5 5 4 5 6 12 13 14 16 16 17 17 18
4 4 4 4 4 4 3 1 1 1 1 2 2 3 2 2 2 2 2 3 3 2 3 4 3 5 6 7 7 7 8 6 5 5 7 13 13 14 16 17 18 19 19
2 2 1 2 2 2 2 1 2 1 2 2 2 2 3 3 3 2 2 3 3 3 3 4 4 6 6 7 8 9 9 9 9 8 6 14 15 15 17 18 19 20 20
3 3 2 2 1 2 2 2 1 2 2 1 2 2 3 3 2 2 3 3 2 3 3 3 4 5 5 5 7 8 9 8 9 9 7 9 15 15 16 17 19 21 21
3 3 4 3 2 2 1 1 1 1 1 1 1 1 1 1 2 2 2 2 2 2 3 3 3 3 4 5 7 8 7 8 8 9 8 7 8 13 15 16 17 19 21
3 3 3 3 4 3 2 1 1 0 1 1 0 0 0 0 1 1 1 2 2 2 2 2 2 2 3 4 5 6 6 6 8 9 8 7 7 7 11 16 18 18 20
3 3 4 4 4 4 3 2 2 1 1 0 0 0 0 0 0 1 1 2 1 1 1 2 2 2 3 4 5 5 5 5 6 8 9 10 9 8 7 11 16 18 21
3 3 3 3 3 3 2 2 2 2 1 1 1 0 1 1 1 1 1 2 1 1 1 1 2 2 3 4 5 5 4 5 5 6 9 8 8 10 10 10 8 11 19
2 2 2 3 2 2 1 1 1 1 0 0 0 0 0 1 1 1 1 1 1 1 2 2 2 3 2 2 3 3 4 6 7 7 7 7 9 10 9 10 8 7 8
2 2 2 2 2 2 1 1 1 1 1 1 1 1 1 1 2 2 2 2 2 2 2 2 2 1 2 1 2 2 3 3 3 6 6 7 8 7 9 10 9 9 7
3 3 3 2 1 1 1 1 2 2 1 1 1 2 2 2 2 2 2 2 2 2 2 3 2 3 2 2 2 2 2 3 3 2 4 6 6 6 8 7 10 10 10
4 3 2 2 1 1 1 1 1 1 1 2 2 2 3 3 3 3 3 3 3 2 3 4 3 3 3 2 2 3 3 2 2 3 2 3 5 7 7 8 8 9 10
3 3 2 2 1 1 1 0 0 1 2 2 2 3 3 3 3 4 3 2 3 3 3 4 3 3 3 3 2 2 2 2 3 3 4 3 3 4 5 6 6 7 9
2 2 2 1 1 1 1 0 0 2 3 3 3 3 3 3 3 4 3 3 3 3 4 4 3 4 4 4 3 2 2 2 2 2 3 3 4 3 4 5 5 6 7
Wind_Direction
155 158 155 149 143 138 134 131 129 128 129 130 132 135 139 143 146 148 149 148 148 146 141 133 125 121 119 119 120 120 120 120 121 120 120 118 117 117 117 116 114 116 119
147 155 155 151 146 141 138 136 135 134 134 135 136 139 141 145 147 149 151 152 152 150 145 139 133 129 126 124 124 124 124 125 125 125 124 122 121 121 121 119 119 124 123
143 152 154 152 148 144 142 140 139 139 139 140 141 143 145 148 150 152 154 155 156 154 150 146 141 136 133 131 131 132 132 131 130 128 121 121 126 127 125 125 126 126 126
142 145 151 153 150 147 145 144 144 144 144 145 146 148 150 152 155 156 158 159 159 158 156 154 150 145 140 138 138 138 139 138 136 125 110 124 136 136 133 132 132 131 128
137 138 156 155 153 151 149 149 149 149 150 151 152 154 156 158 160 161 162 163 163 163 163 162 158 152 149 146 146 146 147 145 140 125 111 110 125 145 141 139 139 136 134
134 138 159 156 156 154 154 155 156 156 157 158 159 161 163 165 167 167 168 169 170 170 171 169 165 161 158 156 156 157 158 159 140 132 130 127 138 154 150 149 147 143 141
137 141 157 157 158 159 159 160 161 163 165 166 168 170 172 173 176 176 177 178 178 179 180 179 174 172 171 169 169 170 172 173 141 148 158 158 166 167 161 159 155 151 149
140 138 152 159 161 163 164 166 169 171 173 175 177 179 181 182 185 186 186 187 189 191 191 190 187 184 184 185 186 187 192 193 167 169 171 177 185 182 174 169 164 161 159
128 123 135 152 162 168 172 174 177 181 183 185 186 188 189 191 194 196 197 197 201 203 203 202 201 200 198 198 201 203 207 211 170 172 189 188 195 193 186 180 175 170 167
122 119 124 130 139 155 173 184 186 189 191 193 195 197 200 202 203 207 207 209 210 212 214 214 212 212 210 210 212 213 217 221 197 194 196 198 201 201 196 189 185 181 177
139 128 127 130 131 138 164 194 193 197 201 202 206 209 208 209 211 217 220 220 224 224 224 224 223 223 221 220 222 223 222 208 205 213 208 214 209 208 204 196 192 189 186
163 162 152 147 142 143 178 189 194 203 202 200 202 219 208 194 215 228 238 235 238 238 236 234 232 230 229 224 229 232 220 204 207 220 222 224 220 216 212 203 198 195 193
166 167 167 161 145 145 154 186 199 205 198 203 209 223 219 202 216 235 242 255 256 255 249 245 242 228 221 218 217 219 221 215 212 221 227 228 226 223 219 210 203 201 198
155 164 167 161 160 166 173 190 209 221 215 211 208 214 218 218 219 225 232 241 246 251 248 239 238 231 230 227 223 225 229 227 221 218 225 230 230 227 225 218 210 205 203
116 114 117 128 159 169 168 185 198 214 233 232 219 215 212 214 221 228 236 240 247 248 248 249 240 238 236 236 234 231 230 230 229 222 224 229 229 229 229 224 217 212 208
110 99 84 88 125 135 151 166 177 196 211 206 217 233 228 220 219 218 236 242 245 247 246 244 244 243 242 239 241 238 236 233 234 229 222 229 232 230 228 226 220 215 212
116 124 125 137 114 109 130 157 137 182 186 216 237 245 233 211 210 219 231 245 254 263 265 257 252 247 249 246 246 245 241 234 232 231 225 220 226 230 229 227 223 216 213
107 109 110 122 111 119 133 106 94 120 130 184 181 84 89 171 201 214 237 257 262 267 261 257 253 256 256 252 251 250 244 236 238 237 230 223 220 225 229 228 225 218 213
106 105 98 102 111 117 117 108 97 85 90 91 80 71 310 291 240 220 247 261 267 263 257 264 252 243 261 260 256 251 243 239 240 243 238 229 222 221 221 228 226 218 214
111 110 116 112 107 114 108 98 82 64 44 37 32 333 330 319 287 241 252 264 257 260 265 259 263 249 250 263 267 263 251 243 237 238 240 235 226 224 222 223 221 221 217
109 117 128 127 126 122 111 114 118 122 277 300 263 248 309 293 284 244 256 273 255 249 265 268 271 271 261 246 260 274 265 245 237 236 235 233 230 226 221 217 213 212 215
170 178 175 167 164 164 144 153 161 155 212 245 296 312 291 284 272 252 234 252 248 247 270 267 248 267 268 232 232 270 289 291 254 237 229 229 231 224 223 219 212 209 211
213 214 205 203 193 186 122 89 65 42 12 348 317 306 300 299 292 281 267 254 247 225 242 251 237 236 256 262 221 224 248 266 305 280 240 232 228 224 223 217 214 212 210
228 221 214 209 212 220 159 151 161 174 240 256 268 283 299 301 296 284 270 258 248 237 242 250 234 225 228 252 254 232 238 246 266 300 291 255 241 230 223 219 218 214 211
216 203 201 195 214 227 186 177 192 257 258 287 297 302 304 304 299 291 275 264 253 243 244 247 243 229 220 223 227 236 245 250 240 253 282 288 272 243 228 221 216 214 210
206 178 167 169 263 315 330 343 276 279 290 303 306 306 305 304 301 297 283 267 260 251 246 242 238 234 229 227 226 223 222 233 238 244 264 277 277 264 240 228 220 216 210